| time (UTC) | temp C | wind direction | speed KPH | gust KPH | rain 1hr cm | rain 24hr cm | rain mn cm | humidity % | barometer mb |
| 20260505172502 | 25 | 238 | 4.8 | 8.0 | 0.00 | 0.00 | 0.00 | 86 | 1013.8 |
| 20260505171957 | 25 | 243 | 6.4 | 8.0 | 0.00 | 0.00 | 0.00 | 87 | 1013.7 |
| 20260505171453 | 25 | 293 | 9.7 | 12.9 | 0.00 | 0.00 | 0.00 | 87 | 1013.9 |
| 20260505170950 | 25 | 242 | 6.4 | 8.0 | 0.00 | 0.00 | 0.00 | 86 | 1013.7 |
| 20260505170447 | 25 | 176 | 4.8 | 4.8 | 0.00 | 0.00 | 0.00 | 85 | 1013.9 |
| 20260505165942 | 25 | 242 | 12.9 | 17.7 | 0.00 | 0.00 | 0.00 | 85 | 1013.8 |
| 20260505165438 | 25 | 184 | 4.8 | 8.0 | 0.00 | 0.00 | 0.00 | 85 | 1013.9 |
| 20260505164934 | 25 | 169 | 4.8 | 4.8 | 0.00 | 0.00 | 0.00 | 85 | 1013.6 |
| 20260505164431 | 26 | 238 | 6.4 | 11.3 | 0.00 | 0.00 | 0.00 | 84 | 1013.6 |
| 20260505163929 | 26 | 220 | 9.7 | 12.9 | 0.00 | 0.00 | 0.00 | 84 | 1013.7 |
| 20260505163427 | 26 | 220 | 8.0 | 9.7 | 0.00 | 0.00 | 0.00 | 84 | 1013.8 |
| 20260505162926 | 25 | 256 | 6.4 | 8.0 | 0.00 | 0.00 | 0.00 | 84 | 1013.8 |
| 20260505162421 | 26 | 261 | 6.4 | 9.7 | 0.00 | 0.00 | 0.00 | 84 | 1013.6 |
| 20260505161918 | 26 | 206 | 4.8 | 4.8 | 0.00 | 0.00 | 0.00 | 84 | 1013.7 |
| 20260505161415 | 25 | 69 | 6.4 | 9.7 | 0.00 | 0.00 | 0.00 | 84 | 1013.7 |
| 20260505160913 | 25 | 234 | 6.4 | 8.0 | 0.00 | 0.00 | 0.00 | 84 | 1013.4 |
| 20260505160411 | 25 | 232 | 9.7 | 11.3 | 0.00 | 0.00 | 0.00 | 84 | 1013.5 |
| 20260505153349 | 25 | 246 | 12.9 | 14.5 | 0.00 | 0.00 | 0.00 | 84 | 1013.3 |
| 20260505152846 | 25 | 264 | 6.4 | 12.9 | 0.00 | 0.00 | 0.00 | 84 | 1013.3 |
| 20260505152338 | 25 | 219 | 8.0 | 12.9 | 0.00 | 0.00 | 0.00 | 85 | 1013.4 |
| 20260505151837 | 25 | 228 | 11.3 | 14.5 | 0.00 | 0.00 | 0.00 | 86 | 1013.2 |
| 20260505151335 | 25 | 256 | 12.9 | 14.5 | 0.00 | 0.00 | 0.00 | 88 | 1013.3 |
| 20260505150832 | 25 | 125 | 3.2 | 4.8 | 0.00 | 0.00 | 0.00 | 90 | 1013.1 |
| 20260505150329 | 24 | 207 | 6.4 | 9.7 | 0.00 | 0.00 | 0.00 | 90 | 1013.2 |
| 20260505140253 | 24 | 291 | 8.0 | 11.3 | 0.00 | 0.00 | 0.00 | 87 | 1013.5 |
| 20260505130217 | 23 | 215 | 8.0 | 9.7 | 0.00 | 0.00 | 0.00 | 88 | 1012.9 |
| 20260505124707 | 23 | 221 | 3.2 | 3.2 | 0.00 | 0.00 | 0.00 | 89 | 1013.1 |
| 20260505124203 | 23 | 181 | 3.2 | 3.2 | 0.00 | 0.00 | 0.00 | 89 | 1012.7 |
| 20260505123659 | 23 | 217 | 4.8 | 4.8 | 0.00 | 0.00 | 0.00 | 89 | 1012.8 |
| 20260505123156 | 23 | 271 | 6.4 | 9.7 | 0.00 | 0.00 | 0.00 | 89 | 1012.6 |
| 20260505122653 | 23 | 235 | 4.8 | 4.8 | 0.00 | 0.00 | 0.00 | 89 | 1012.4 |
| 20260505122150 | 23 | 166 | 3.2 | 4.8 | 0.00 | 0.00 | 0.00 | 89 | 1012.3 |
| 20260505121647 | 23 | 192 | 4.8 | 8.0 | 0.00 | 0.00 | 0.00 | 89 | 1012.8 |
| 20260505121143 | 23 | 197 | 3.2 | 3.2 | 0.00 | 0.00 | 0.00 | 89 | 1012.9 |
| 20260505120639 | 23 | 224 | 4.8 | 4.8 | 0.00 | 0.00 | 0.00 | 89 | 1013.0 |
| 20260505120136 | 23 | 203 | 3.2 | 3.2 | 0.00 | 0.00 | 0.00 | 89 | 1012.8 |
| 20260505115630 | 23 | 224 | 8.0 | 9.7 | 0.00 | 0.00 | 0.00 | 89 | 1012.7 |
| 20260505115128 | 23 | 170 | 1.6 | 1.6 | 0.00 | 0.00 | 0.00 | 89 | 1012.5 |
| 20260505114624 | 23 | 248 | 9.7 | 11.3 | 0.00 | 0.00 | 0.00 | 89 | 1012.6 |
| 20260505114121 | 23 | 182 | 3.2 | 4.8 | 0.00 | 0.00 | 0.00 | 89 | 1012.7 |
| 20260505113617 | 23 | 166 | 1.6 | 3.2 | 0.00 | 0.00 | 0.00 | 89 | 1012.4 |
| 20260505113114 | 23 | 184 | 1.6 | 3.2 | 0.00 | 0.00 | 0.00 | 89 | 1012.5 |
| 20260505112610 | 23 | 164 | 3.2 | 3.2 | 0.00 | 0.00 | 0.00 | 89 | 1012.7 |
| 20260505112108 | 23 | 199 | 3.2 | 4.8 | 0.00 | 0.00 | 0.00 | 89 | 1012.7 |
| 20260505111602 | 23 | 254 | 8.0 | 9.7 | 0.00 | 0.00 | 0.00 | 89 | 1012.7 |
| 20260505111058 | 23 | 223 | 4.8 | 4.8 | 0.00 | 0.00 | 0.00 | 89 | 1012.9 |
| 20260505110555 | 23 | 259 | 3.2 | 3.2 | 0.00 | 0.00 | 0.00 | 89 | 1013.1 |
| 20260505102027 | 23 | 156 | 1.6 | 1.6 | 0.00 | 0.00 | 0.00 | 88 | 1012.5 |
| 20260505101526 | 23 | 179 | 1.6 | 3.2 | 0.00 | 0.00 | 0.00 | 88 | 1012.6 |
| 20260505101022 | 23 | 278 | 6.4 | 8.0 | 0.00 | 0.00 | 0.00 | 88 | 1012.3 |
| 20260505100519 | 23 | 206 | 3.2 | 8.0 | 0.00 | 0.00 | 0.00 | 88 | 1012.3 |
| 20260505100016 | 23 | 241 | 4.8 | 8.0 | 0.00 | 0.00 | 0.00 | 87 | 1012.5 |
| 20260505095512 | 23 | 188 | 3.2 | 3.2 | 0.00 | 0.00 | 0.00 | 87 | 1012.6 |
| 20260505095008 | 23 | 180 | 4.8 | 8.0 | 0.00 | 0.00 | 0.00 | 88 | 1012.8 |
| 20260505094505 | 23 | 233 | 4.8 | 4.8 | 0.00 | 0.00 | 0.00 | 88 | 1012.8 |
| 20260505094001 | 23 | 213 | 3.2 | 4.8 | 0.00 | 0.00 | 0.00 | 87 | 1013.0 |
| 20260505093457 | 23 | 248 | 4.8 | 8.0 | 0.00 | 0.00 | 0.00 | 87 | 1013.0 |
| 20260505092955 | 23 | 234 | 3.2 | 3.2 | 0.00 | 0.00 | 0.00 | 87 | 1013.0 |
| 20260505092452 | 23 | 211 | 1.6 | 3.2 | 0.00 | 0.00 | 0.00 | 87 | 1012.7 |
| 20260505091950 | 23 | 247 | 4.8 | 8.0 | 0.00 | 0.00 | 0.00 | 88 | 1012.9 |
| 20260505091447 | 23 | 239 | 3.2 | 3.2 | 0.00 | 0.00 | 0.00 | 88 | 1012.9 |
| 20260505090945 | 23 | 206 | 3.2 | 8.0 | 0.00 | 0.00 | 0.00 | 87 | 1012.9 |
| 20260505090443 | 23 | 248 | 8.0 | 9.7 | 0.00 | 0.00 | 0.00 | 87 | 1013.1 |
| 20260505085940 | 23 | 234 | 3.2 | 3.2 | 0.00 | 0.00 | 0.00 | 87 | 1012.8 |
| 20260505085438 | 23 | 219 | 3.2 | 3.2 | 0.00 | 0.00 | 0.00 | 87 | 1012.8 |
| 20260505084936 | 23 | 223 | 1.6 | 1.6 | 0.00 | 0.00 | 0.00 | 87 | 1012.8 |
| 20260505084434 | 23 | 259 | 4.8 | 4.8 | 0.00 | 0.00 | 0.00 | 87 | 1012.8 |
| 20260505083932 | 23 | 278 | 6.4 | 9.7 | 0.00 | 0.00 | 0.00 | 86 | 1012.8 |
| 20260505083429 | 23 | 255 | 8.0 | 9.7 | 0.00 | 0.00 | 0.00 | 86 | 1013.0 |
| 20260505082925 | 23 | 205 | 3.2 | 3.2 | 0.00 | 0.00 | 0.00 | 86 | 1012.9 |
| 20260505082421 | 23 | 285 | 6.4 | 9.7 | 0.00 | 0.00 | 0.00 | 86 | 1012.6 |
| 20260505081918 | 23 | 289 | 3.2 | 4.8 | 0.00 | 0.00 | 0.00 | 86 | 1012.9 |
| 20260505081415 | 23 | 261 | 9.7 | 11.3 | 0.00 | 0.00 | 0.00 | 86 | 1013.0 |
| 20260505080911 | 23 | 231 | 1.6 | 8.0 | 0.00 | 0.00 | 0.00 | 86 | 1013.1 |
| 20260505080408 | 23 | 229 | 3.2 | 3.2 | 0.00 | 0.00 | 0.00 | 86 | 1013.0 |
| 20260505075903 | 23 | 218 | 4.8 | 8.0 | 0.00 | 0.00 | 0.00 | 86 | 1013.2 |
| 20260505075400 | 23 | 250 | 3.2 | 4.8 | 0.00 | 0.00 | 0.00 | 85 | 1013.3 |
| 20260505074857 | 23 | 249 | 8.0 | 12.9 | 0.00 | 0.00 | 0.00 | 85 | 1013.4 |
| 20260505074354 | 22 | 273 | 3.2 | 4.8 | 0.00 | 0.00 | 0.00 | 86 | 1013.4 |
| 20260505073852 | 22 | 250 | 9.7 | 12.9 | 0.00 | 0.00 | 0.00 | 85 | 1013.1 |
| 20260505073349 | 22 | 216 | 4.8 | 4.8 | 0.00 | 0.00 | 0.00 | 86 | 1013.1 |
| 20260505072846 | 22 | 275 | 6.4 | 9.7 | 0.00 | 0.00 | 0.00 | 85 | 1013.6 |
| 20260505072342 | 22 | 217 | 4.8 | 8.0 | 0.00 | 0.00 | 0.00 | 86 | 1013.2 |
| 20260505071838 | 22 | 235 | 4.8 | 8.0 | 0.00 | 0.00 | 0.00 | 85 | 1013.2 |
| 20260505071335 | 22 | 186 | 1.6 | 3.2 | 0.00 | 0.00 | 0.00 | 85 | 1013.3 |
| 20260505070833 | 22 | 212 | 6.4 | 8.0 | 0.00 | 0.00 | 0.00 | 86 | 1013.4 |
| 20260505070329 | 22 | 198 | 4.8 | 9.7 | 0.00 | 0.00 | 0.00 | 86 | 1013.6 |
| 20260505065825 | 22 | 197 | 3.2 | 3.2 | 0.00 | 0.00 | 0.00 | 86 | 1013.6 |
| 20260505065322 | 22 | 262 | 6.4 | 9.7 | 0.00 | 0.00 | 0.00 | 86 | 1013.7 |
| 20260505064819 | 22 | 266 | 4.8 | 4.8 | 0.00 | 0.00 | 0.00 | 86 | 1014.0 |
| 20260505064316 | 22 | 231 | 8.0 | 9.7 | 0.00 | 0.00 | 0.00 | 86 | 1014.0 |
| 20260505063814 | 22 | 244 | 4.8 | 8.0 | 0.00 | 0.00 | 0.00 | 86 | 1013.7 |
| 20260505063310 | 22 | 228 | 1.6 | 3.2 | 0.00 | 0.00 | 0.00 | 85 | 1014.2 |
| 20260505062806 | 22 | 202 | 3.2 | 3.2 | 0.00 | 0.00 | 0.00 | 85 | 1014.1 |
| 20260505062304 | 22 | 268 | 6.4 | 8.0 | 0.00 | 0.00 | 0.00 | 85 | 1014.1 |
| 20260505061800 | 22 | 214 | 1.6 | 3.2 | 0.00 | 0.00 | 0.00 | 85 | 1014.3 |
| 20260505061259 | 22 | 198 | 3.2 | 3.2 | 0.00 | 0.00 | 0.00 | 85 | 1014.3 |
| 20260505060756 | 22 | 267 | 4.8 | 4.8 | 0.00 | 0.00 | 0.00 | 85 | 1014.3 |
| 20260505060253 | 22 | 207 | 1.6 | 1.6 | 0.00 | 0.00 | 0.00 | 85 | 1014.2 |
| 20260505055748 | 22 | 220 | 4.8 | 9.7 | 0.00 | 0.00 | 0.00 | 85 | 1014.2 |
| 20260505055245 | 22 | 235 | 6.4 | 9.7 | 0.00 | 0.00 | 0.00 | 84 | 1014.3 |
| 20260505054742 | 22 | 214 | 3.2 | 4.8 | 0.00 | 0.00 | 0.00 | 84 | 1014.5 |
| 20260505054240 | 22 | 267 | 4.8 | 4.8 | 0.00 | 0.00 | 0.00 | 84 | 1014.4 |
| 20260505053738 | 22 | 215 | 1.6 | 1.6 | 0.00 | 0.00 | 0.00 | 84 | 1014.3 |
| 20260505053234 | 22 | 225 | 4.8 | 4.8 | 0.00 | 0.00 | 0.00 | 84 | 1014.4 |
| 20260505052732 | 22 | 205 | 1.6 | 3.2 | 0.00 | 0.00 | 0.00 | 84 | 1014.2 |
| 20260505052228 | 22 | 231 | 4.8 | 8.0 | 0.00 | 0.00 | 0.00 | 84 | 1014.4 |
| 20260505051725 | 22 | 241 | 4.8 | 4.8 | 0.00 | 0.00 | 0.00 | 84 | 1014.5 |
| 20260505051223 | 22 | 258 | 6.4 | 9.7 | 0.00 | 0.00 | 0.00 | 84 | 1014.3 |
| 20260505050721 | 22 | 233 | 3.2 | 3.2 | 0.00 | 0.00 | 0.00 | 84 | 1014.4 |
| 20260505050219 | 22 | 220 | 3.2 | 3.2 | 0.00 | 0.00 | 0.00 | 84 | 1014.5 |
| 20260505041648 | 22 | 224 | 1.6 | 1.6 | 0.00 | 0.00 | 0.00 | 84 | 1015.1 |
| 20260505041146 | 22 | 225 | 3.2 | 3.2 | 0.00 | 0.00 | 0.00 | 84 | 1014.7 |
| 20260505040643 | 22 | 244 | 3.2 | 4.8 | 0.00 | 0.00 | 0.00 | 84 | 1014.9 |
| 20260505040140 | 22 | 159 | 3.2 | 3.2 | 0.00 | 0.00 | 0.00 | 84 | 1014.9 |
| 20260505035636 | 22 | 215 | 3.2 | 3.2 | 0.00 | 0.00 | 0.00 | 83 | 1014.9 |
| 20260505035132 | 22 | 170 | 1.6 | 1.6 | 0.00 | 0.00 | 0.00 | 83 | 1015.4 |
| 20260505034629 | 22 | 220 | 1.6 | 1.6 | 0.00 | 0.00 | 0.00 | 83 | 1015.2 |
| 20260505034126 | 22 | 178 | 1.6 | 1.6 | 0.00 | 0.00 | 0.00 | 83 | 1015.2 |
| 20260505033623 | 22 | 237 | 1.6 | 3.2 | 0.00 | 0.00 | 0.00 | 83 | 1014.9 |
| 20260505033121 | 22 | 238 | 1.6 | 1.6 | 0.00 | 0.00 | 0.00 | 83 | 1015.2 |
| 20260505032619 | 22 | 285 | 1.6 | 1.6 | 0.00 | 0.00 | 0.00 | 83 | 1015.2 |
| 20260505032115 | 22 | 279 | 0.0 | 0.0 | 0.00 | 0.00 | 0.00 | 82 | 1015.3 |
| 20260505031613 | 22 | 164 | 1.6 | 3.2 | 0.00 | 0.00 | 0.00 | 82 | 1014.9 |
| 20260505031108 | 22 | 166 | 1.6 | 1.6 | 0.00 | 0.00 | 0.00 | 82 | 1015.0 |
| 20260505030606 | 22 | 216 | 3.2 | 4.8 | 0.00 | 0.00 | 0.00 | 82 | 1015.3 |
| 20260505025557 | 22 | 211 | 3.2 | 3.2 | 0.00 | 0.00 | 0.00 | 81 | 1015.2 |
| 20260505025057 | 22 | 205 | 3.2 | 3.2 | 0.00 | 0.00 | 0.00 | 81 | 1015.3 |
| 20260505024553 | 22 | 155 | 1.6 | 1.6 | 0.00 | 0.00 | 0.00 | 81 | 1015.0 |
| 20260505024050 | 22 | 204 | 3.2 | 3.2 | 0.00 | 0.00 | 0.00 | 81 | 1015.2 |
| 20260505023548 | 22 | 201 | 3.2 | 3.2 | 0.00 | 0.00 | 0.00 | 81 | 1015.2 |
| 20260505023045 | 22 | 205 | 4.8 | 4.8 | 0.00 | 0.00 | 0.00 | 80 | 1015.0 |
| 20260505022543 | 22 | 202 | 3.2 | 3.2 | 0.00 | 0.00 | 0.00 | 80 | 1015.2 |
| 20260505022040 | 22 | 279 | 1.6 | 1.6 | 0.00 | 0.00 | 0.00 | 80 | 1015.2 |
| 20260505021536 | 22 | 231 | 3.2 | 3.2 | 0.00 | 0.00 | 0.00 | 80 | 1015.1 |
| 20260505021033 | 22 | 174 | 1.6 | 1.6 | 0.00 | 0.00 | 0.00 | 80 | 1014.8 |
| 20260505020532 | 22 | 212 | 4.8 | 8.0 | 0.00 | 0.00 | 0.00 | 80 | 1015.1 |
| 20260505020030 | 22 | 174 | 1.6 | 1.6 | 0.00 | 0.00 | 0.00 | 80 | 1015.0 |
| 20260505015527 | 22 | 173 | 1.6 | 3.2 | 0.00 | 0.00 | 0.00 | 80 | 1014.8 |
| 20260505015024 | 23 | 203 | 3.2 | 3.2 | 0.00 | 0.00 | 0.00 | 79 | 1014.8 |
| 20260505014520 | 22 | 168 | 1.6 | 1.6 | 0.00 | 0.00 | 0.00 | 79 | 1014.8 |
| 20260505014018 | 22 | 151 | 0.0 | 1.6 | 0.00 | 0.00 | 0.00 | 79 | 1014.8 |
| 20260505013515 | 23 | 153 | 1.6 | 1.6 | 0.00 | 0.00 | 0.00 | 79 | 1014.8 |
| 20260505013012 | 23 | 228 | 1.6 | 3.2 | 0.00 | 0.00 | 0.00 | 79 | 1014.7 |
| 20260505012510 | 23 | 163 | 0.0 | 0.0 | 0.00 | 0.00 | 0.00 | 79 | 1015.0 |
| 20260505012007 | 23 | 170 | 3.2 | 3.2 | 0.00 | 0.00 | 0.00 | 78 | 1015.1 |
| 20260505011502 | 23 | 251 | 4.8 | 4.8 | 0.00 | 0.00 | 0.00 | 78 | 1015.0 |
| 20260505011000 | 23 | 172 | 3.2 | 4.8 | 0.00 | 0.00 | 0.00 | 78 | 1014.7 |
| 20260505010455 | 23 | 122 | 1.6 | 1.6 | 0.00 | 0.00 | 0.00 | 78 | 1014.9 |
| 20260505005951 | 23 | 164 | 1.6 | 3.2 | 0.00 | 0.00 | 0.00 | 77 | 1015.0 |
| 20260505005448 | 23 | 265 | 6.4 | 8.0 | 0.00 | 0.00 | 0.00 | 77 | 1014.7 |
| 20260505004946 | 23 | 227 | 9.7 | 14.5 | 0.00 | 0.00 | 0.00 | 76 | 1014.8 |
| 20260505004443 | 23 | 119 | 1.6 | 1.6 | 0.00 | 0.00 | 0.00 | 76 | 1014.6 |
| 20260505003940 | 23 | 149 | 1.6 | 3.2 | 0.00 | 0.00 | 0.00 | 76 | 1014.6 |
| 20260505003437 | 23 | 228 | 8.0 | 9.7 | 0.00 | 0.00 | 0.00 | 75 | 1014.5 |
| 20260505002933 | 23 | 95 | 4.8 | 8.0 | 0.00 | 0.00 | 0.00 | 75 | 1014.7 |
| 20260505002429 | 23 | 196 | 6.4 | 9.7 | 0.00 | 0.00 | 0.00 | 75 | 1014.9 |
| 20260505001928 | 23 | 211 | 6.4 | 9.7 | 0.00 | 0.00 | 0.00 | 74 | 1014.9 |
| 20260505001425 | 24 | 225 | 9.7 | 12.9 | 0.00 | 0.00 | 0.00 | 74 | 1014.7 |
| 20260505000922 | 24 | 206 | 4.8 | 4.8 | 0.00 | 0.00 | 0.00 | 74 | 1014.8 |
| 20260505000420 | 24 | 142 | 1.6 | 1.6 | 0.00 | 0.00 | 0.00 | 74 | 1014.7 |
| 20260504235916 | 24 | 267 | 6.4 | 9.7 | 0.00 | 0.00 | 0.00 | 74 | 1014.9 |
| 20260504235414 | 24 | 219 | 8.0 | 11.3 | 0.00 | 0.00 | 0.00 | 74 | 1015.0 |
| 20260504234910 | 24 | 227 | 4.8 | 4.8 | 0.00 | 0.00 | 0.00 | 74 | 1014.9 |
| 20260504234408 | 25 | 130 | 3.2 | 3.2 | 0.00 | 0.00 | 0.00 | 73 | 1015.0 |
| 20260504233904 | 25 | 107 | 3.2 | 4.8 | 0.00 | 0.00 | 0.00 | 72 | 1015.0 |
| 20260504233359 | 25 | 207 | 8.0 | 11.3 | 0.00 | 0.00 | 0.00 | 73 | 1015.2 |
| 20260504232856 | 25 | 238 | 3.2 | 4.8 | 0.00 | 0.00 | 0.00 | 71 | 1015.0 |
| 20260504232354 | 25 | 123 | 0.0 | 1.6 | 0.00 | 0.00 | 0.00 | 70 | 1015.1 |
| 20260504231850 | 25 | 246 | 3.2 | 8.0 | 0.00 | 0.00 | 0.00 | 72 | 1015.0 |
| 20260504231347 | 25 | 188 | 1.6 | 1.6 | 0.00 | 0.00 | 0.00 | 72 | 1015.5 |
| 20260504230843 | 24 | 116 | 3.2 | 3.2 | 0.00 | 0.00 | 0.00 | 72 | 1015.4 |
| 20260504230341 | 24 | 251 | 11.3 | 12.9 | 0.00 | 0.00 | 0.00 | 72 | 1015.3 |
| 20260504225839 | 24 | 207 | 9.7 | 12.9 | 0.00 | 0.00 | 0.00 | 72 | 1015.5 |
| 20260504225335 | 25 | 278 | 8.0 | 11.3 | 0.00 | 0.00 | 0.00 | 72 | 1015.5 |
| 20260504224833 | 25 | 169 | 1.6 | 3.2 | 0.00 | 0.00 | 0.00 | 72 | 1015.7 |
| 20260504224330 | 25 | 171 | 4.8 | 9.7 | 0.00 | 0.00 | 0.00 | 71 | 1015.5 |
| 20260504223826 | 25 | 177 | 1.6 | 1.6 | 0.00 | 0.00 | 0.00 | 71 | 1015.7 |
| 20260504223322 | 25 | 247 | 8.0 | 11.3 | 0.00 | 0.00 | 0.00 | 71 | 1015.7 |
| 20260504222819 | 25 | 222 | 9.7 | 12.9 | 0.00 | 0.00 | 0.00 | 71 | 1015.9 |
| 20260504222316 | 25 | 153 | 3.2 | 3.2 | 0.00 | 0.00 | 0.00 | 72 | 1015.9 |
| 20260504221814 | 25 | 129 | 1.6 | 1.6 | 0.00 | 0.00 | 0.00 | 72 | 1015.8 |
| 20260504221310 | 25 | 255 | 8.0 | 9.7 | 0.00 | 0.00 | 0.00 | 71 | 1016.1 |
| 20260504220807 | 25 | 230 | 3.2 | 4.8 | 0.00 | 0.00 | 0.00 | 71 | 1016.2 |
| 20260504220304 | 25 | 170 | 4.8 | 9.7 | 0.00 | 0.00 | 0.00 | 70 | 1015.9 |
| 20260504215802 | 25 | 176 | 8.0 | 11.3 | 0.00 | 0.00 | 0.00 | 70 | 1015.9 |
| 20260504215258 | 25 | 284 | 4.8 | 9.7 | 0.00 | 0.00 | 0.00 | 70 | 1016.0 |
| 20260504214754 | 25 | 164 | 1.6 | 1.6 | 0.00 | 0.00 | 0.00 | 70 | 1016.2 |
| 20260504214250 | 25 | 106 | 1.6 | 3.2 | 0.00 | 0.00 | 0.00 | 69 | 1016.0 |
| 20260504213747 | 25 | 194 | 1.6 | 3.2 | 0.00 | 0.00 | 0.00 | 69 | 1016.5 |
| 20260504213243 | 25 | 250 | 1.6 | 3.2 | 0.00 | 0.00 | 0.00 | 69 | 1016.3 |
| 20260504212741 | 25 | 214 | 3.2 | 8.0 | 0.00 | 0.00 | 0.00 | 68 | 1016.2 |
| 20260504212237 | 25 | 212 | 4.8 | 9.7 | 0.00 | 0.00 | 0.00 | 69 | 1016.4 |
| 20260504211735 | 25 | 188 | 3.2 | 3.2 | 0.00 | 0.00 | 0.00 | 68 | 1016.6 |
| 20260504211231 | 25 | 203 | 4.8 | 8.0 | 0.00 | 0.00 | 0.00 | 68 | 1016.6 |
| 20260504210728 | 25 | 250 | 11.3 | 12.9 | 0.00 | 0.00 | 0.00 | 67 | 1016.4 |
| 20260504210225 | 25 | 148 | 3.2 | 4.8 | 0.00 | 0.00 | 0.00 | 68 | 1016.6 |
| 20260504205722 | 25 | 234 | 9.7 | 11.3 | 0.00 | 0.00 | 0.00 | 67 | 1016.7 |
| 20260504205220 | 26 | 198 | 3.2 | 4.8 | 0.00 | 0.00 | 0.00 | 67 | 1016.4 |
| 20260504204718 | 26 | 213 | 4.8 | 8.0 | 0.00 | 0.00 | 0.00 | 66 | 1016.5 |
| 20260504204216 | 26 | 228 | 8.0 | 12.9 | 0.00 | 0.00 | 0.00 | 65 | 1016.9 |
| 20260504203715 | 26 | 190 | 1.6 | 3.2 | 0.00 | 0.00 | 0.00 | 65 | 1016.9 |
| 20260504203212 | 27 | 135 | 4.8 | 9.7 | 0.00 | 0.00 | 0.00 | 62 | 1016.8 |
| 20260504202712 | 26 | 184 | 1.6 | 1.6 | 0.00 | 0.00 | 0.00 | 65 | 1017.2 |
| 20260504202210 | 27 | 226 | 6.4 | 9.7 | 0.00 | 0.00 | 0.00 | 64 | 1017.2 |
| 20260504201706 | 26 | 282 | 4.8 | 11.3 | 0.00 | 0.00 | 0.00 | 65 | 1017.0 |
| 20260504201204 | 26 | 207 | 3.2 | 4.8 | 0.00 | 0.00 | 0.00 | 66 | 1017.0 |
| 20260504200701 | 27 | 133 | 4.8 | 4.8 | 0.00 | 0.00 | 0.00 | 63 | 1017.1 |
| 20260504200157 | 27 | 161 | 3.2 | 3.2 | 0.00 | 0.00 | 0.00 | 62 | 1017.2 |
| 20260504195653 | 26 | 119 | 3.2 | 3.2 | 0.00 | 0.00 | 0.00 | 63 | 1017.3 |
| 20260504195150 | 26 | 258 | 6.4 | 11.3 | 0.00 | 0.00 | 0.00 | 64 | 1017.5 |
| 20260504194647 | 27 | 88 | 4.8 | 9.7 | 0.00 | 0.00 | 0.00 | 62 | 1017.4 |
| 20260504194142 | 26 | 268 | 6.4 | 11.3 | 0.00 | 0.00 | 0.00 | 63 | 1017.6 |
| 20260504193639 | 26 | 145 | 1.6 | 3.2 | 0.00 | 0.00 | 0.00 | 64 | 1017.3 |
| 20260504193137 | 27 | 256 | 8.0 | 9.7 | 0.00 | 0.00 | 0.00 | 63 | 1017.7 |
| 20260504192635 | 27 | 139 | 3.2 | 4.8 | 0.00 | 0.00 | 0.00 | 63 | 1017.7 |
| 20260504192133 | 26 | 158 | 3.2 | 3.2 | 0.00 | 0.00 | 0.00 | 64 | 1017.6 |
| 20260504191631 | 26 | 273 | 9.7 | 12.9 | 0.00 | 0.00 | 0.00 | 65 | 1017.7 |
| 20260504191127 | 26 | 159 | 1.6 | 1.6 | 0.00 | 0.00 | 0.00 | 63 | 1017.6 |
| 20260504190623 | 27 | 260 | 1.6 | 3.2 | 0.00 | 0.00 | 0.00 | 62 | 1017.7 |
| 20260504190120 | 26 | 246 | 9.7 | 14.5 | 0.00 | 0.00 | 0.00 | 65 | 1018.0 |
| 20260504185616 | 26 | 230 | 8.0 | 9.7 | 0.00 | 0.00 | 0.00 | 64 | 1018.1 |
| 20260504185113 | 26 | 178 | 0.0 | 1.6 | 0.00 | 0.00 | 0.00 | 62 | 1017.9 |
| 20260504184609 | 26 | 194 | 6.4 | 8.0 | 0.00 | 0.00 | 0.00 | 62 | 1017.8 |
| 20260504184104 | 26 | 235 | 6.4 | 8.0 | 0.00 | 0.00 | 0.00 | 63 | 1017.6 |
| 20260504183602 | 26 | 250 | 11.3 | 14.5 | 0.00 | 0.00 | 0.00 | 61 | 1017.7 |
| 20260504183059 | 26 | 244 | 4.8 | 9.7 | 0.00 | 0.00 | 0.00 | 64 | 1017.9 |
| 20260504182556 | 26 | 182 | 0.0 | 1.6 | 0.00 | 0.00 | 0.00 | 64 | 1018.0 |
| 20260504182054 | 26 | 232 | 4.8 | 8.0 | 0.00 | 0.00 | 0.00 | 64 | 1018.2 |
| 20260504181550 | 26 | 111 | 8.0 | 12.9 | 0.00 | 0.00 | 0.00 | 64 | 1018.1 |
| 20260504181049 | 26 | 169 | 1.6 | 1.6 | 0.00 | 0.00 | 0.00 | 62 | 1018.3 |
| 20260504180547 | 26 | 218 | 4.8 | 8.0 | 0.00 | 0.00 | 0.00 | 62 | 1018.5 |
| 20260504180046 | 26 | 195 | 3.2 | 4.8 | 0.00 | 0.00 | 0.00 | 63 | 1018.3 |
| 20260504175543 | 26 | 268 | 8.0 | 9.7 | 0.00 | 0.00 | 0.00 | 66 | 1018.3 |
| 20260504175040 | 26 | 293 | 3.2 | 4.8 | 0.00 | 0.00 | 0.00 | 63 | 1018.2 |
| 20260504174538 | 25 | 263 | 4.8 | 8.0 | 0.00 | 0.00 | 0.00 | 63 | 1018.6 |
| 20260504174034 | 26 | 223 | 6.4 | 8.0 | 0.00 | 0.00 | 0.00 | 62 | 1018.5 |
| 20260504173531 | 26 | 204 | 4.8 | 4.8 | 0.00 | 0.00 | 0.00 | 63 | 1018.9 |
| 20260504173028 | 26 | 272 | 9.7 | 11.3 | 0.00 | 0.00 | 0.00 | 64 | 1018.7 |